This is the latest recevied weather packets stored in our database for station/object KA1AL. If no packets are shown the sender has not sent any weather packets the latest 10 day(s).
| Time | Temp. | Humidity | Pressure | Rain* | Wind** | Luminosity | Snow |
|---|---|---|---|---|---|---|---|
| 1777761150 | 3.33° C | 99% | 1010.8 hPa | 0 mm | - | 12 W/m² | - |
| 1777760847 | 3.89° C | 99% | 1010.5 hPa | 0 mm | - | 14 W/m² | - |
| 1777760544 | 3.89° C | 99% | 1011 hPa | 0 mm | - | 16 W/m² | - |
| 1777760240 | 3.89° C | 99% | 1010.8 hPa | 0 mm | - | 34 W/m² | - |
| 1777759937 | 3.89° C | 99% | 1010.8 hPa | 0 mm | - | 39 W/m² | - |
| 1777759633 | 3.89° C | 99% | 1010.8 hPa | 0 mm | - | 35 W/m² | - |
| 1777759329 | 3.89° C | 99% | 1010.9 hPa | 0 mm | - | 44 W/m² | - |
| 1777759027 | 3.89° C | 99% | 1010.7 hPa | 0 mm | - | 49 W/m² | - |
| 1777758723 | 3.89° C | 99% | 1010.9 hPa | 0 mm | - | 35 W/m² | - |
| 1777758421 | 3.89° C | 99% | 1011 hPa | 0 mm | - | 42 W/m² | - |
| 1777758118 | 3.89° C | 99% | 1011.1 hPa | 0 mm | - | 41 W/m² | - |
| 1777757815 | 3.89° C | 99% | 1011 hPa | 0 mm | - | 55 W/m² | - |
| 1777757512 | 3.89° C | 99% | 1011.1 hPa | 0 mm | - | 59 W/m² | - |
| 1777757211 | 3.89° C | 99% | 1010.8 hPa | 0 mm | - | 57 W/m² | - |
| 1777756908 | 3.89° C | 99% | 1010.9 hPa | 0 mm | - | 69 W/m² | - |
| 1777756604 | 3.89° C | 99% | 1011.1 hPa | 0 mm | - | 91 W/m² | - |
| 1777756301 | 3.33° C | 99% | 1010.8 hPa | 0 mm | - | 118 W/m² | - |
| 1777755998 | 3.89° C | 99% | 1011.1 hPa | 0 mm | - | 111 W/m² | - |
| 1777755695 | 3.33° C | 99% | 1011.1 hPa | 0 mm | - | 122 W/m² | - |
| 1777755392 | 3.33° C | 99% | 1011.1 hPa | 1.78 mm | - | 110 W/m² | - |
| 1777755089 | 3.33° C | 99% | 1011.2 hPa | 1.78 mm | - | 110 W/m² | - |
| 1777753573 | 3.33° C | 99% | 1011.4 hPa | 0 mm | - | 59 W/m² | - |
| 1777753271 | 3.33° C | 99% | 1011.3 hPa | 0 mm | - | 59 W/m² | - |
| 1777752968 | 3.33° C | 99% | 1011.4 hPa | 0 mm | - | 58 W/m² | - |
| 1777752664 | 3.33° C | 99% | 1011.3 hPa | 0 mm | - | 38 W/m² | - |
* Rain latest hour (hover to see other rain measurements)
** Current wind speed in m/s (hover to see current wind gust speed)